STV5 KCLT-KSFB

Flight info

Callsign STV5
Flight time 1h 6m
Altitude 47000
Route ICONS5 NOOKS LPERD TTHOR3
Aircraft C750/M-SBDE3FGHRWXY/S

Departure

Time 2026-05-05 00:52
Airport Charlotte Douglas International Airport (KCLT)

Arrival

Time 2026-05-05 01:59
Airport Orlando Sanford International Airport (KSFB)
Time Latitude Longitude Altitude Speed Heading
2026-05-05 00:29 35.21072 -80.93254 731 ft 0 kts 86°
2026-05-05 00:45 35.21091 -80.93256 731 ft 7 kts 303°
2026-05-05 00:45 35.21113 -80.93333 729 ft 13 kts 255°
2026-05-05 00:46 35.21001 -80.93357 729 ft 22 kts 176°
2026-05-05 00:46 35.20849 -80.93344 729 ft 21 kts 176°
2026-05-05 00:46 35.20707 -80.93331 730 ft 20 kts 173°
2026-05-05 00:46 35.20573 -80.93293 730 ft 19 kts 166°
2026-05-05 00:47 35.20448 -80.93257 729 ft 18 kts 167°
2026-05-05 00:47 35.20290 -80.93223 729 ft 28 kts 177°
2026-05-05 00:47 35.20233 -80.93219 729 ft 0 kts 177°
2026-05-05 00:47 35.20228 -80.93219 729 ft 4 kts 177°
2026-05-05 00:48 35.20150 -80.93219 729 ft 18 kts 196°
2026-05-05 00:48 35.20109 -80.93387 731 ft 22 kts 291°
2026-05-05 00:48 35.20235 -80.93544 730 ft 32 kts 321°
2026-05-05 00:48 35.20483 -80.93583 729 ft 40 kts 356°
2026-05-05 00:49 35.20754 -80.93607 729 ft 39 kts 356°
2026-05-05 00:49 35.21027 -80.93629 730 ft 40 kts 356°
2026-05-05 00:49 35.21304 -80.93652 730 ft 39 kts 356°
2026-05-05 00:49 35.21571 -80.93675 729 ft 38 kts 356°
2026-05-05 00:50 35.21824 -80.93698 731 ft 35 kts 356°
2026-05-05 00:50 35.22068 -80.93719 729 ft 34 kts 356°
2026-05-05 00:50 35.22293 -80.93739 730 ft 22 kts 355°
2026-05-05 00:50 35.22443 -80.93753 730 ft 19 kts 356°
2026-05-05 00:51 35.22495 -80.93733 731 ft 0 kts 57°
2026-05-05 00:51 35.22505 -80.93703 731 ft 11 kts 79°
2026-05-05 00:51 35.22455 -80.93614 733 ft 11 kts 176°
2026-05-05 00:52 35.22306 -80.93603 732 ft 65 kts 175°
2026-05-05 00:52 35.21498 -80.93523 897 ft 141 kts 177°
2026-05-05 00:52 35.20415 -80.93436 1417 ft 170 kts 177°
2026-05-05 00:52 35.19151 -80.93285 2022 ft 195 kts 176°
2026-05-05 00:53 35.17721 -80.93119 2683 ft 217 kts 177°
2026-05-05 00:53 35.16124 -80.92954 3357 ft 245 kts 178°
2026-05-05 00:53 35.14331 -80.92792 4028 ft 272 kts 180°
2026-05-05 00:53 35.12478 -80.92955 5128 ft 255 kts 189°
2026-05-05 00:54 35.10720 -80.93232 6271 ft 260 kts 188°
2026-05-05 00:54 35.08868 -80.93398 7168 ft 270 kts 185°
2026-05-05 00:54 35.06984 -80.93512 8366 ft 273 kts 186°
2026-05-05 00:54 35.05076 -80.93668 9524 ft 278 kts 187°
2026-05-05 00:55 35.03122 -80.93846 10403 ft 289 kts 187°
2026-05-05 00:55 35.01027 -80.94029 10752 ft 316 kts 187°
2026-05-05 00:55 34.98737 -80.94217 10972 ft 343 kts 186°
2026-05-05 00:55 34.96384 -80.94403 12184 ft 330 kts 186°
2026-05-05 00:56 34.94082 -80.94590 13138 ft 336 kts 187°
2026-05-05 00:56 34.91718 -80.94797 13893 ft 343 kts 187°
2026-05-05 00:56 34.89322 -80.94999 14668 ft 347 kts 187°
2026-05-05 00:56 34.86896 -80.95197 15436 ft 351 kts 187°
2026-05-05 00:57 34.84445 -80.95399 16244 ft 355 kts 187°
2026-05-05 00:57 34.81965 -80.95607 17056 ft 359 kts 187°
2026-05-05 00:57 34.79453 -80.95818 17882 ft 364 kts 187°
2026-05-05 00:57 34.76912 -80.96028 18676 ft 368 kts 187°
2026-05-05 00:58 34.74343 -80.96241 19431 ft 373 kts 187°
2026-05-05 00:58 34.71671 -80.96468 19550 ft 397 kts 187°
2026-05-05 00:58 34.68884 -80.96700 20211 ft 402 kts 187°
2026-05-05 00:58 34.66087 -80.96923 21013 ft 404 kts 187°
2026-05-05 00:59 34.63268 -80.97156 21734 ft 408 kts 188°
2026-05-05 00:59 34.60419 -80.97400 22465 ft 412 kts 188°
2026-05-05 00:59 34.57549 -80.97675 23173 ft 416 kts 188°
2026-05-05 00:59 34.54653 -80.97963 23829 ft 420 kts 188°
2026-05-05 01:00 34.51723 -80.98238 24414 ft 424 kts 188°
2026-05-05 01:00 34.48776 -80.98505 25000 ft 427 kts 188°
2026-05-05 01:00 34.45801 -80.98783 25584 ft 430 kts 188°
2026-05-05 01:00 34.42805 -80.99069 26174 ft 434 kts 188°
2026-05-05 01:01 34.39784 -80.99353 26738 ft 437 kts 188°
2026-05-05 01:01 34.36738 -80.99635 27319 ft 441 kts 188°
2026-05-05 01:01 34.33693 -80.99918 27894 ft 434 kts 188°
2026-05-05 01:01 34.30644 -81.00204 28050 ft 445 kts 189°
2026-05-05 01:02 34.27558 -81.00496 28046 ft 446 kts 188°
2026-05-05 01:02 34.21381 -81.01069 28457 ft 450 kts 188°
2026-05-05 01:02 34.18260 -81.01358 29138 ft 451 kts 189°
2026-05-05 01:03 34.15114 -81.01654 29664 ft 456 kts 189°
2026-05-05 01:03 34.11939 -81.01951 30183 ft 459 kts 189°
2026-05-05 01:03 34.08744 -81.02246 30679 ft 462 kts 189°
2026-05-05 01:03 34.05531 -81.02543 31234 ft 463 kts 189°
2026-05-05 01:04 34.03369 -81.02743 31750 ft 460 kts 189°
2026-05-05 01:04 33.97046 -81.03328 33295 ft 453 kts 189°
2026-05-05 01:04 33.93907 -81.03576 34062 ft 450 kts 188°
2026-05-05 01:05 33.90788 -81.03783 34663 ft 449 kts 188°
2026-05-05 01:05 33.87660 -81.04014 35142 ft 450 kts 189°
2026-05-05 01:05 33.84533 -81.04270 35664 ft 451 kts 189°
2026-05-05 01:05 33.81395 -81.04517 36184 ft 453 kts 189°
2026-05-05 01:06 33.78246 -81.04748 36709 ft 454 kts 189°
2026-05-05 01:06 33.75087 -81.04982 37239 ft 455 kts 189°
2026-05-05 01:06 33.71923 -81.05226 37779 ft 456 kts 190°
2026-05-05 01:06 33.68751 -81.05472 38328 ft 458 kts 190°
2026-05-05 01:07 33.65567 -81.05713 38839 ft 459 kts 190°
2026-05-05 01:07 33.62422 -81.05948 39257 ft 459 kts 190°
2026-05-05 01:07 33.59232 -81.06190 39742 ft 459 kts 190°
2026-05-05 01:07 33.56040 -81.06434 40226 ft 459 kts 190°
2026-05-05 01:08 33.52853 -81.06675 40715 ft 460 kts 190°
2026-05-05 01:08 33.49660 -81.06916 41206 ft 460 kts 190°
2026-05-05 01:08 33.46464 -81.07157 41702 ft 460 kts 190°
2026-05-05 01:08 33.43268 -81.07399 42190 ft 460 kts 190°
2026-05-05 01:09 33.40032 -81.07644 42697 ft 460 kts 190°
2026-05-05 01:09 33.36836 -81.07885 43175 ft 460 kts 190°
2026-05-05 01:09 33.33645 -81.08125 43650 ft 459 kts 191°
2026-05-05 01:09 33.30454 -81.08365 44123 ft 459 kts 191°
2026-05-05 01:10 33.27263 -81.08606 44566 ft 459 kts 191°
2026-05-05 01:10 33.24078 -81.08846 44971 ft 460 kts 191°
2026-05-05 01:10 33.20886 -81.09085 45346 ft 459 kts 191°
2026-05-05 01:10 33.17735 -81.09322 45699 ft 459 kts 191°
2026-05-05 01:11 33.14545 -81.09562 46038 ft 460 kts 191°
2026-05-05 01:11 33.11352 -81.09801 46352 ft 460 kts 191°
2026-05-05 01:11 33.08160 -81.10040 46665 ft 460 kts 191°
2026-05-05 01:11 33.04962 -81.10280 46956 ft 460 kts 191°
2026-05-05 01:12 33.01762 -81.10520 47072 ft 464 kts 191°
2026-05-05 01:12 32.98515 -81.10768 47072 ft 471 kts 191°
2026-05-05 01:12 32.91882 -81.11260 47093 ft 483 kts 190°
2026-05-05 01:13 32.85207 -81.11746 47073 ft 464 kts 190°
2026-05-05 01:13 32.82054 -81.11973 47067 ft 444 kts 191°
2026-05-05 01:13 32.79023 -81.12205 47060 ft 430 kts 192°
2026-05-05 01:14 32.73051 -81.12671 47067 ft 436 kts 191°
2026-05-05 01:14 32.66924 -81.13114 47089 ft 444 kts 191°
2026-05-05 01:15 32.60754 -81.13573 47086 ft 443 kts 191°
2026-05-05 01:15 32.54613 -81.14026 47080 ft 440 kts 192°
2026-05-05 01:16 32.48494 -81.14482 47076 ft 441 kts 192°
2026-05-05 01:16 32.42366 -81.14933 47076 ft 441 kts 192°
2026-05-05 01:17 32.36229 -81.15389 47077 ft 446 kts 192°
2026-05-05 01:17 32.29995 -81.15846 47077 ft 450 kts 192°
2026-05-05 01:18 32.23769 -81.16302 47108 ft 448 kts 192°
2026-05-05 01:18 32.17546 -81.16762 47095 ft 448 kts 192°
2026-05-05 01:19 32.11327 -81.17216 47093 ft 448 kts 192°
2026-05-05 01:19 32.05108 -81.17674 47067 ft 448 kts 192°
2026-05-05 01:20 31.98905 -81.18125 47074 ft 447 kts 192°
2026-05-05 01:20 31.92694 -81.18582 47072 ft 447 kts 192°
2026-05-05 01:21 31.86487 -81.19033 47068 ft 447 kts 192°
2026-05-05 01:21 31.80362 -81.19474 47077 ft 437 kts 192°
2026-05-05 01:22 31.74279 -81.19927 46949 ft 442 kts 193°
2026-05-05 01:22 31.71190 -81.20153 46563 ft 446 kts 192°
2026-05-05 01:22 31.68101 -81.20369 46183 ft 443 kts 192°
2026-05-05 01:23 31.65031 -81.20588 45807 ft 441 kts 193°
2026-05-05 01:23 31.61984 -81.20814 45431 ft 438 kts 193°
2026-05-05 01:23 31.58939 -81.21038 45045 ft 438 kts 193°
2026-05-05 01:23 31.55898 -81.21258 44662 ft 438 kts 193°
2026-05-05 01:24 31.52857 -81.21477 44237 ft 438 kts 193°
2026-05-05 01:24 31.49811 -81.21697 43827 ft 439 kts 193°
2026-05-05 01:24 31.46757 -81.21919 43321 ft 440 kts 193°
2026-05-05 01:24 31.43699 -81.22140 42843 ft 440 kts 193°
2026-05-05 01:25 31.40642 -81.22360 42372 ft 440 kts 193°
2026-05-05 01:25 31.37583 -81.22580 41908 ft 440 kts 193°
2026-05-05 01:25 31.34522 -81.22802 41456 ft 440 kts 193°
2026-05-05 01:25 31.31463 -81.23023 41013 ft 441 kts 193°
2026-05-05 01:26 31.28401 -81.23243 40570 ft 441 kts 193°
2026-05-05 01:26 31.25340 -81.23463 40143 ft 441 kts 193°
2026-05-05 01:26 31.22272 -81.23684 39671 ft 441 kts 193°
2026-05-05 01:26 31.19211 -81.23903 39262 ft 440 kts 193°
2026-05-05 01:27 31.16155 -81.24123 38856 ft 440 kts 193°
2026-05-05 01:27 31.13098 -81.24344 38383 ft 441 kts 193°
2026-05-05 01:27 31.10034 -81.24564 37904 ft 441 kts 193°
2026-05-05 01:27 31.06971 -81.24783 37436 ft 442 kts 193°
2026-05-05 01:28 31.03899 -81.25003 37043 ft 442 kts 193°
2026-05-05 01:28 31.00842 -81.25220 36990 ft 439 kts 193°
2026-05-05 01:28 30.94704 -81.25664 36954 ft 443 kts 193°
2026-05-05 01:29 30.91622 -81.25883 36756 ft 447 kts 193°
2026-05-05 01:29 30.88502 -81.26107 36122 ft 448 kts 193°
2026-05-05 01:29 30.85399 -81.26324 35517 ft 447 kts 193°
2026-05-05 01:29 30.82295 -81.26544 34913 ft 447 kts 193°
2026-05-05 01:30 30.79186 -81.26770 34309 ft 448 kts 193°
2026-05-05 01:30 30.76072 -81.26994 33662 ft 449 kts 193°
2026-05-05 01:30 30.72951 -81.27214 33053 ft 449 kts 192°
2026-05-05 01:30 30.69827 -81.27435 32443 ft 450 kts 192°
2026-05-05 01:31 30.66695 -81.27659 31814 ft 451 kts 192°
2026-05-05 01:31 30.63600 -81.27879 31224 ft 452 kts 192°
2026-05-05 01:31 30.60455 -81.28091 30608 ft 454 kts 191°
2026-05-05 01:31 30.57266 -81.28000 29956 ft 460 kts 186°
2026-05-05 01:32 30.54011 -81.27797 29023 ft 464 kts 185°
2026-05-05 01:32 30.50789 -81.27608 27966 ft 464 kts 185°
2026-05-05 01:32 30.47563 -81.27461 26955 ft 465 kts 185°
2026-05-05 01:32 30.44368 -81.27316 25991 ft 467 kts 184°
2026-05-05 01:33 30.41123 -81.27140 25420 ft 467 kts 183°
2026-05-05 01:33 30.37825 -81.26958 25193 ft 469 kts 183°
2026-05-05 01:33 30.34604 -81.26799 24973 ft 471 kts 183°
2026-05-05 01:33 30.31334 -81.26641 24760 ft 471 kts 183°
2026-05-05 01:34 30.28041 -81.26472 24219 ft 474 kts 182°
2026-05-05 01:34 30.24751 -81.26290 23556 ft 472 kts 181°
2026-05-05 01:34 30.21589 -81.26074 22903 ft 439 kts 181°
2026-05-05 01:34 30.18627 -81.25870 22329 ft 417 kts 182°
2026-05-05 01:35 30.15745 -81.25711 21771 ft 415 kts 182°
2026-05-05 01:35 30.12777 -81.25555 21196 ft 432 kts 181°
2026-05-05 01:35 30.09783 -81.25360 20604 ft 432 kts 181°
2026-05-05 01:35 30.06786 -81.25156 20035 ft 430 kts 181°
2026-05-05 01:36 30.03807 -81.24975 19446 ft 427 kts 181°
2026-05-05 01:36 30.00854 -81.24806 18867 ft 424 kts 181°
2026-05-05 01:36 29.97924 -81.24627 18171 ft 415 kts 180°
2026-05-05 01:36 29.95137 -81.24443 17608 ft 390 kts 180°
2026-05-05 01:37 29.92451 -81.24281 17084 ft 386 kts 181°
2026-05-05 01:37 29.89778 -81.24237 16562 ft 384 kts 182°
2026-05-05 01:37 29.87116 -81.24116 16042 ft 381 kts 180°
2026-05-05 01:37 29.84477 -81.23966 15527 ft 379 kts 180°
2026-05-05 01:38 29.81858 -81.23876 15007 ft 375 kts 181°
2026-05-05 01:38 29.79256 -81.23810 14502 ft 373 kts 181°
2026-05-05 01:38 29.76672 -81.23716 13995 ft 370 kts 180°
2026-05-05 01:38 29.74112 -81.23608 13466 ft 367 kts 180°
2026-05-05 01:39 29.71594 -81.23513 12962 ft 352 kts 180°
2026-05-05 01:39 29.69208 -81.23431 12495 ft 337 kts 180°
2026-05-05 01:39 29.66873 -81.23350 12045 ft 335 kts 180°
2026-05-05 01:39 29.64559 -81.23252 11985 ft 335 kts 180°
2026-05-05 01:40 29.62233 -81.23107 11992 ft 335 kts 179°
2026-05-05 01:40 29.59902 -81.22959 11997 ft 336 kts 179°
2026-05-05 01:40 29.57566 -81.22834 11917 ft 337 kts 180°
2026-05-05 01:40 29.55230 -81.22713 11672 ft 334 kts 179°
2026-05-05 01:41 29.52970 -81.22585 11381 ft 320 kts 179°
2026-05-05 01:41 29.50749 -81.22459 11107 ft 320 kts 179°
2026-05-05 01:41 29.48533 -81.22337 10829 ft 315 kts 179°
2026-05-05 01:41 29.46416 -81.22218 10548 ft 297 kts 179°
2026-05-05 01:42 29.44373 -81.22106 10298 ft 293 kts 179°
2026-05-05 01:42 29.42340 -81.21995 10045 ft 292 kts 179°
2026-05-05 01:42 29.40311 -81.21883 9775 ft 292 kts 179°
2026-05-05 01:42 29.38288 -81.21770 9508 ft 291 kts 179°
2026-05-05 01:43 29.36270 -81.21659 9255 ft 290 kts 179°
2026-05-05 01:43 29.34261 -81.21573 8999 ft 288 kts 180°
2026-05-05 01:43 29.32262 -81.21503 8739 ft 287 kts 180°
2026-05-05 01:43 29.30264 -81.21422 8488 ft 286 kts 180°
2026-05-05 01:44 29.28277 -81.21336 8242 ft 285 kts 179°
2026-05-05 01:44 29.26297 -81.21252 7987 ft 284 kts 179°
2026-05-05 01:44 29.24332 -81.21141 7728 ft 282 kts 176°
2026-05-05 01:44 29.22383 -81.20966 7486 ft 280 kts 179°
2026-05-05 01:45 29.20440 -81.20891 7244 ft 279 kts 179°
2026-05-05 01:45 29.18504 -81.20786 7007 ft 278 kts 178°
2026-05-05 01:45 29.16579 -81.20640 6773 ft 276 kts 177°
2026-05-05 01:45 29.14666 -81.20501 6532 ft 275 kts 178°
2026-05-05 01:46 29.12756 -81.20375 6285 ft 274 kts 178°
2026-05-05 01:46 29.10862 -81.20345 6033 ft 269 kts 182°
2026-05-05 01:46 29.09022 -81.20329 5801 ft 261 kts 180°
2026-05-05 01:46 29.07208 -81.20271 5571 ft 261 kts 180°
2026-05-05 01:47 29.05982 -81.20251 5420 ft 259 kts 181°
2026-05-05 01:47 29.04224 -81.20242 5194 ft 249 kts 181°
2026-05-05 01:47 29.02502 -81.20286 4983 ft 245 kts 188°
2026-05-05 01:47 29.00891 -81.20738 5006 ft 241 kts 197°
2026-05-05 01:48 28.99330 -81.21231 4998 ft 220 kts 197°
2026-05-05 01:48 28.97850 -81.21681 5000 ft 223 kts 196°
2026-05-05 01:48 28.96339 -81.22135 4961 ft 225 kts 196°
2026-05-05 01:48 28.94851 -81.22584 5003 ft 226 kts 197°
2026-05-05 01:49 28.93335 -81.23044 4998 ft 226 kts 197°
2026-05-05 01:49 28.91823 -81.23514 4995 ft 226 kts 199°
2026-05-05 01:49 28.90328 -81.24058 4989 ft 226 kts 197°
2026-05-05 01:49 28.88802 -81.24506 4983 ft 226 kts 196°
2026-05-05 01:50 28.87310 -81.25082 4728 ft 227 kts 211°
2026-05-05 01:50 28.86066 -81.26184 4355 ft 228 kts 221°
2026-05-05 01:50 28.84896 -81.27411 3998 ft 229 kts 223°
2026-05-05 01:50 28.83730 -81.28674 3630 ft 227 kts 223°
2026-05-05 01:51 28.82622 -81.29916 3262 ft 226 kts 222°
2026-05-05 01:51 28.81513 -81.31191 2970 ft 224 kts 223°
2026-05-05 01:51 28.80435 -81.32460 2979 ft 221 kts 223°
2026-05-05 01:51 28.79360 -81.33715 2986 ft 224 kts 223°
2026-05-05 01:52 28.78268 -81.34987 2986 ft 225 kts 223°
2026-05-05 01:52 28.77167 -81.36280 2816 ft 232 kts 223°
2026-05-05 01:52 28.76036 -81.37602 2447 ft 233 kts 223°
2026-05-05 01:52 28.74941 -81.38947 2044 ft 231 kts 229°
2026-05-05 01:53 28.74430 -81.40682 1777 ft 229 kts 262°
2026-05-05 01:53 28.74283 -81.42509 1916 ft 233 kts 263°
2026-05-05 01:53 28.74461 -81.44323 1923 ft 237 kts 294°
2026-05-05 01:53 28.75564 -81.45616 1845 ft 225 kts 339°
2026-05-05 01:54 28.77036 -81.45691 1913 ft 210 kts 24°
2026-05-05 01:54 28.78151 -81.44680 2011 ft 204 kts 53°
2026-05-05 01:54 28.78539 -81.43208 1962 ft 195 kts 96°
2026-05-05 01:54 28.78227 -81.41750 2010 ft 179 kts 99°
2026-05-05 01:55 28.78170 -81.40423 1998 ft 157 kts 92°
2026-05-05 01:55 28.78157 -81.39226 1987 ft 148 kts 92°
2026-05-05 01:55 28.78156 -81.38095 1976 ft 142 kts 91°
2026-05-05 01:55 28.78158 -81.36975 1978 ft 131 kts 91°
2026-05-05 01:56 28.78161 -81.35990 1894 ft 123 kts 92°
2026-05-05 01:56 28.78163 -81.35022 1732 ft 122 kts 91°
2026-05-05 01:56 28.78164 -81.34046 1573 ft 124 kts 91°
2026-05-05 01:56 28.78166 -81.33070 1409 ft 122 kts 91°
2026-05-05 01:57 28.78168 -81.32096 1255 ft 124 kts 90°
2026-05-05 01:57 28.78167 -81.31102 1077 ft 126 kts 90°
2026-05-05 01:57 28.78168 -81.30098 920 ft 130 kts 90°
2026-05-05 01:57 28.78171 -81.29068 743 ft 126 kts 89°
2026-05-05 01:58 28.78171 -81.28107 572 ft 120 kts 90°
2026-05-05 01:58 28.78172 -81.27165 419 ft 117 kts 89°
2026-05-05 01:58 28.78174 -81.26234 281 ft 117 kts 88°
2026-05-05 01:58 28.78178 -81.25290 98 ft 120 kts 89°
2026-05-05 01:59 28.78179 -81.24408 53 ft 92 kts 90°
2026-05-05 01:59 28.78151 -81.23982 60 ft 22 kts 122°
2026-05-05 01:59 28.78103 -81.23895 57 ft 4 kts 122°